Weather History for KDTN - September, 2013

Change the Weather History Date:

Thursday, September 12, 2013

  Actual Average (KSHV) Record (KSHV)
Temperature  
Mean Temperature 84 °F 78 °F  
Max Temperature 98 °F 90 °F 102 °F (1980)
Min Temperature 71 °F 67 °F 52 °F (1940)
Degree Days  
Heating Degree Days 0 0  
Month to date heating degree days 0  
Since 1 July heating degree days 0  
Cooling Degree Days 19 13  
Month to date cooling degree days 179  
Year to date cooling degree days 2141  
Growing Degree Days 34 (Base 50)    
Moisture  
Dew Point 67 °F    
Average Humidity 60    
Maximum Humidity 93    
Minimum Humidity 29    
Precipitation  
Precipitation 0.00 in 0.11 in 2.90 in (1961)
Month to date precipitation 1.20  
Year to date precipitation 35.19  
Snow  
Snow 0.00 in - - ()
Month to date snowfall  
Since 1 July snowfall  
Since 1 September snowfall  
Snow Depth -    
Sea Level Pressure  
Sea Level Pressure 29.99 in    
Wind  
Wind Speed 1 mph (North)    
Max Wind Speed 7 mph    
Max Gust Speed -    
Visibility 9 miles    
Events      
T = Trace of Precipitation, MM = Missing Value Source: NWS Daily Summary

Daily Weather History Graph

Daily Weather History Graph

Search for Another Location

Airport or City:

Trip Planner

Search our weather history database for the weather conditions in past years. The results will help you decide how hot, cold, wet, or windy it might be!

Date:

Astronomy

Sep. 12, 2013 Rise Set
Actual Time 6:57 AM CDT 7:24 PM CDT
Civil Twilight 6:32 AM CDT 7:49 PM CDT
Nautical Twilight 6:03 AM CDT 8:18 PM CDT
Astronomical Twilight 5:33 AM CDT 8:47 PM CDT
Moon 2:03 PM CDT (9/12) No Moon Set
Length of Visible Light 13h 17m
Length of Day
12h 27m
Waxing Crescent, 50% of the Moon is Illuminated
Sep 12
Waxing Crescent
Sep 12
First Quarter
Sep 19
Full
Sep 26
Last Quarter
Oct 4
New

Hourly Weather History & Observations

Time (CDT) Temp. Heat Index Dew Point Humidity Pressure Visibility Wind Dir Wind Speed Gust Speed Precip Events Conditions
12:53 AM 75.9 °F - 71.1 °F 85% 30.04 in 8.0 mi Calm Calm - N/A   Clear
1:53 AM 75.0 °F - 70.0 °F 84% 30.03 in 8.0 mi Calm Calm - N/A   Clear
2:53 AM 73.9 °F - 70.0 °F 87% 30.03 in 7.0 mi Calm Calm - N/A   Clear
3:53 AM 73.9 °F - 70.0 °F 87% 30.02 in 7.0 mi Calm Calm - N/A   Clear
4:53 AM 73.0 °F - 70.0 °F 90% 30.02 in 6.0 mi Calm Calm - N/A   Clear
5:53 AM 71.1 °F - 69.1 °F 93% 30.04 in 6.0 mi Calm Calm - N/A   Clear
6:53 AM 72.0 °F - 70.0 °F 93% 30.05 in 6.0 mi Calm Calm - N/A   Clear
7:53 AM 75.0 °F - 70.0 °F 84% 30.06 in 6.0 mi Calm Calm - N/A   Haze
8:53 AM 79.0 °F - 70.0 °F 74% 30.06 in 7.0 mi NW 3.5 mph - N/A   Clear
9:53 AM 84.9 °F 88.8 °F 69.1 °F 59% 30.06 in 9.0 mi WNW 5.8 mph - N/A   Clear
10:53 AM 90.0 °F 94.5 °F 69.1 °F 50% 30.06 in 10.0 mi North 5.8 mph - N/A   Clear
11:53 AM 91.9 °F 94.5 °F 66.0 °F 42% 30.05 in 10.0 mi WNW 3.5 mph - N/A   Clear
12:53 PM 93.0 °F 94.2 °F 63.0 °F 37% 30.03 in 10.0 mi Calm Calm - N/A   Clear
1:53 PM 95.0 °F 96.0 °F 63.0 °F 34% 30.00 in 10.0 mi Calm Calm - N/A   Scattered Clouds
2:53 PM 97.0 °F 97.8 °F 62.1 °F 31% 29.96 in 10.0 mi NNE 4.6 mph - N/A   Scattered Clouds
3:53 PM 96.1 °F 96.9 °F 62.1 °F 32% 29.93 in 10.0 mi SE 6.9 mph - N/A   Partly Cloudy
4:53 PM 97.0 °F 97.4 °F 61.0 °F 30% 29.91 in 10.0 mi SW 3.5 mph - N/A   Partly Cloudy
5:53 PM 97.0 °F 96.9 °F 60.1 °F 29% 29.90 in 10.0 mi NNE 3.5 mph - N/A   Clear
6:53 PM 91.0 °F 92.6 °F 64.0 °F 41% 29.90 in 10.0 mi Calm Calm - N/A   Clear
7:53 PM 84.0 °F 86.3 °F 66.0 °F 55% 29.92 in 10.0 mi Calm Calm - N/A   Clear
8:53 PM 82.9 °F 84.4 °F 64.0 °F 53% 29.92 in 10.0 mi Calm Calm - N/A   Clear
9:53 PM 84.0 °F 85.8 °F 64.9 °F 53% 29.94 in 10.0 mi NE 4.6 mph - N/A   Mostly Cloudy
10:53 PM 84.0 °F 86.5 °F 66.9 °F 56% 29.94 in 10.0 mi ENE 3.5 mph - N/A   Overcast
11:53 PM 82.0 °F 84.5 °F 66.9 °F 60% 29.94 in 10.0 mi Calm Calm - N/A   Clear